[[{"header":{"parameterUnit":"m.s-1","parameterCategory":1,"la1":30.2991,"la2":30.254,"lo1":-89.0895,"lo2":-89.0444,"dy":0.0017,"dx":0.0017,"nx":28,"ny":28,"refTime":"2023-11-09T09:00:00:Z","depth":0,"parameterNumber":2,"parameterNumberName":"U-component_of_WINDS"},"data":[0,0,0,0,0,0,0,0,0,0,0,0,0,0,0,0,0,0,0,0,0,0,0,0,0,0,0,0,0,0,0,0,0,0,0,0,0,0,0,0,0,0,0,0,0,0,0,0,0,0,0,0,0,0,0,0,0,0,-2.5656,-2.5656,0,-2.5634,-2.5634,-2.5633,-2.5581,-2.558,-2.5579,-2.5578,-2.5553,-2.5553,-2.5554,0,0,0,0,0,0,0,0,0,0,0,0,0,-2.5655,-2.5655,-2.5656,-2.5656,-2.5656,-2.5634,-2.5633,-2.5633,-2.5581,-2.558,-2.5579,-2.5577,-2.5553,-2.5553,-2.5554,0,0,0,0,0,0,0,0,0,0,0,0,0,-2.5646,-2.5655,-2.5656,-2.5627,-2.5624,-2.5634,-2.5633,-2.5633,-2.5581,-2.558,-2.5578,-2.5577,-2.5553,-2.5553,-2.5554,-2.5589,0,0,-2.5555,-2.5555,0,0,0,0,0,0,0,0,-2.5647,-2.5646,-2.5632,-2.5629,-2.5626,-2.5609,-2.5624,-2.5618,-2.5582,-2.5598,-2.5578,-2.5576,-2.5573,-2.5571,-2.5571,-2.5588,-2.5587,-2.5555,-2.5556,-2.5556,-2.5556,0,0,0,0,0,0,0,-2.5647,-2.5647,-2.5647,-2.5632,-2.5628,-2.5615,-2.5612,-2.5623,-2.5594,-2.5596,-2.5592,-2.559,-2.5571,-2.557,-2.557,-2.5586,-2.5555,-2.5556,-2.5556,-2.5556,-2.5635,-2.5637,0,0,0,0,0,0,-2.5652,-2.5648,-2.5648,-2.5647,-2.5633,-2.5617,-2.5613,-2.5616,-2.5594,-2.5589,-2.5592,-2.5588,-2.557,-2.5569,-2.5569,-2.561,-2.5556,-2.5556,-2.5557,-2.5633,-2.5635,-2.5637,0,0,0,0,0,0,-2.5653,-2.5653,-2.5649,-2.5646,-2.5645,-2.5619,-2.5622,-2.5616,-2.5616,-2.5591,-2.5586,-2.5597,-2.5569,-2.5568,-2.5585,-2.5608,-2.5556,-2.5557,-2.5631,-2.5634,-2.5636,-2.5693,0,0,0,0,0,0,-2.5653,-2.5653,-2.5666,-2.5647,-2.5645,-2.5666,-2.5623,-2.5617,-2.5617,-2.5612,-2.5594,-2.5589,-2.5568,-2.5585,-2.5586,-2.5608,-2.5557,-2.5629,-2.5632,-2.5635,-2.5689,-2.5697,-2.5704,0,0,0,0,0,-2.5653,-2.5682,-2.5667,-2.5667,-2.5661,-2.5667,-2.5666,-2.5641,-2.5619,-2.5632,-2.5617,-2.559,-2.5606,-2.5587,-2.5588,-2.5611,-2.5627,-2.5631,-2.5635,-2.5685,-2.5695,-2.5704,0,0,0,0,0,0,-2.5702,-2.5678,-2.5662,-2.5685,-2.5679,-2.5658,-2.5673,-2.5652,-2.5651,-2.5646,-2.5615,-2.5611,-2.5633,-2.5624,-2.5603,-2.5645,-2.5613,-2.5617,-2.565,-2.566,-2.5667,-2.5669,-2.5558,0,0,0,0,0,-2.5716,-2.5724,-2.5702,-2.5725,-2.5723,-2.57,-2.5701,-2.5683,-2.5674,-2.5671,-2.5657,-2.565,-2.5654,-2.5656,-2.5658,-2.5688,-2.5684,-2.5704,-2.5712,-2.5719,-2.5722,-2.574,-2.5749,-2.565,-2.565,-2.565,0,0,-2.5744,-2.5732,-2.5739,-2.5735,-2.5728,-2.5737,-2.5697,-2.5707,-2.5714,-2.5672,-2.5688,-2.5678,-2.5668,-2.5693,-2.5703,-2.5685,-2.5749,-2.5724,-2.5729,-2.5729,-2.5745,-2.5754,-2.5762,-2.5653,-2.5653,-2.5652,0,0,-2.58,-2.5792,-2.5811,-2.5805,-2.5796,-2.578,-2.5786,-2.5769,-2.5761,-2.5777,-2.5747,-2.5755,-2.5761,-2.5756,-2.5754,-2.5813,-2.5789,-2.5815,-2.5855,-2.5872,-2.588,-2.5886,-2.5908,-2.5917,-2.5819,-2.5819,-2.5819,0,-2.5836,-2.5848,-2.5823,-2.5836,-2.5837,-2.5802,-2.5822,-2.5817,-2.5809,-2.581,-2.5791,-2.5801,-2.5792,-2.5815,-2.583,-2.583,-2.5835,-2.5816,-2.5881,-2.5887,-2.5893,-2.5914,-2.5922,-2.5822,-2.5822,-2.5822,-2.5821,0,-2.5893,-2.5903,-2.592,-2.5914,-2.5916,-2.5933,-2.5911,-2.5916,-2.5899,-2.5886,-2.5904,-2.5893,-2.5893,-2.5897,-2.5879,-2.5919,-2.5909,-2.5886,-2.5853,-2.5906,-2.5925,-2.5933,-2.5827,-2.5826,-2.5825,-2.5824,0,0,-2.5976,-2.596,-2.5966,-2.5965,-2.5954,-2.596,-2.5977,-2.5978,-2.5984,-2.598,-2.5994,-2.6002,-2.5982,-2.598,-2.5962,-2.5977,-2.6027,-2.5953,-2.5952,-2.5967,-2.6072,-2.6089,-2.6098,-2.6012,-2.6013,-2.6014,-2.6073,0,-2.6029,-2.6055,-2.6035,-2.6066,-2.6075,-2.6044,-2.6059,-2.6054,-2.6043,-2.605,-2.6038,-2.6045,-2.6017,-2.6017,-2.603,-2.6018,-2.6047,-2.6013,-2.6024,-2.6024,-2.6027,-2.6108,-2.6125,-2.6181,-2.608,-2.6081,-2.6082,0,-2.6093,-2.6095,-2.6126,-2.6117,-2.612,-2.6133,-2.6134,-2.6141,-2.6136,-2.6127,-2.6128,-2.6107,-2.6123,-2.6092,-2.6114,-2.6092,-2.6095,-2.609,-2.6092,-2.6091,-2.6056,-2.611,-2.6198,-2.6207,-2.6093,-2.6092,-2.6092,0,-2.6151,-2.6161,-2.6182,-2.6182,-2.617,-2.6181,-2.6176,-2.617,-2.6173,-2.6175,-2.6177,-2.618,-2.6182,-2.6185,-2.6166,-2.6145,-2.6192,-2.6158,-2.6186,-2.6186,-2.6196,-2.6195,-2.6286,-2.6199,-2.6199,-2.6199,-2.6198,0,-2.6212,-2.6232,-2.6208,-2.6221,-2.6244,-2.6222,-2.6246,-2.6238,-2.6234,-2.6245,-2.6219,-2.623,-2.6205,-2.6214,-2.62,-2.6222,-2.6222,-2.6216,-2.6212,-2.6218,-2.6219,-2.6219,-2.6215,-2.6201,-2.62,-2.62,-2.6199,0,-2.6279,-2.6264,-2.6285,-2.6274,-2.6272,-2.629,-2.628,-2.6292,-2.6282,-2.6297,-2.6299,-2.6282,-2.6292,-2.6274,-2.6281,-2.6271,-2.6302,-2.6292,-2.6304,-2.6301,-2.633,-2.6328,-2.6424,-2.6436,-2.6341,-2.6342,-2.6343,0,-2.6318,-2.6334,-2.6326,-2.6332,-2.633,-2.6341,-2.6345,-2.6325,-2.633,-2.6328,-2.6341,-2.6349,-2.6354,-2.6372,-2.636,-2.6366,-2.6356,-2.6389,-2.6356,-2.6363,-2.6357,-2.6356,-2.6358,-2.6395,-2.6396,-2.6397,-2.6398,0,-2.639,-2.6383,-2.639,-2.6396,-2.6402,-2.6405,-2.6407,-2.6413,-2.6393,-2.64,-2.6411,-2.6415,-2.6425,-2.6433,-2.6437,-2.6433,-2.6413,-2.6409,-2.6416,-2.6422,-2.6429,-2.6426,-2.6323,-2.6406,-2.6406,-2.6405,-2.6405,-2.6404,-2.6444,-2.6458,-2.6455,-2.6465,-2.6465,-2.6468,-2.648,-2.6472,-2.648,-2.6487,-2.6475,-2.6489,-2.6487,-2.649,-2.6489,-2.6501,-2.6486,-2.6495,-2.6497,-2.65,-2.6505,-2.6428,-2.6501,-2.6501,-2.6501,-2.65,-2.65,0,-2.6515,-2.6513,-2.6522,-2.6527,-2.6535,-2.6517,-2.6519,-2.6527,-2.654,-2.6541,-2.6547,-2.6561,-2.6571,-2.6562,-2.6569,-2.6581,-2.6572,-2.6583,-2.6582,-2.6582,-2.6517,-2.6511,-2.6591,-2.6591,-2.6591,-2.6591,-2.6591,-2.6591,-2.6552,-2.6575,-2.6569,-2.6592,-2.6589,-2.6604,-2.6607,-2.661,-2.6611,-2.6628,-2.6636,-2.6631,-2.6628,-2.6636,-2.6644,-2.6642,-2.6646,-2.6661,-2.6655,-2.6595,-2.6586,-2.6577,-2.6571,-2.6662,-2.6662,-2.6718,-2.6719,-2.6719]},{"header":{"parameterUnit":"m.s-1","parameterCategory":1,"la1":30.2991,"la2":30.254,"lo1":-89.0895,"lo2":-89.0444,"dy":0.0017,"dx":0.0017,"nx":28,"ny":28,"refTime":"2023-11-09T09:00:00:Z","depth":0,"parameterNumber":3,"parameterNumberName":"V-component_of_WINDS"},"data":[0,0,0,0,0,0,0,0,0,0,0,0,0,0,0,0,0,0,0,0,0,0,0,0,0,0,0,0,0,0,0,0,0,0,0,0,0,0,0,0,0,0,0,0,0,0,0,0,0,0,0,0,0,0,0,0,0,0,-0.6542,-0.6542,0,-0.6573,-0.6573,-0.6574,-0.6541,-0.654,-0.6538,-0.6537,-0.6571,-0.6574,-0.6576,0,0,0,0,0,0,0,0,0,0,0,0,0,-0.6453,-0.6455,-0.6542,-0.6542,-0.6542,-0.6573,-0.6573,-0.6574,-0.6541,-0.654,-0.6538,-0.6537,-0.6571,-0.6573,-0.6576,0,0,0,0,0,0,0,0,0,0,0,0,0,-0.6489,-0.6456,-0.6542,-0.653,-0.6529,-0.6573,-0.6573,-0.6574,-0.6542,-0.654,-0.6538,-0.6536,-0.657,-0.6573,-0.6576,-0.6634,0,0,-0.6586,-0.6587,0,0,0,0,0,0,0,0,-0.6487,-0.6492,-0.6531,-0.6531,-0.653,-0.6551,-0.6555,-0.6594,-0.6542,-0.6537,-0.6537,-0.6535,-0.6566,-0.657,-0.658,-0.6636,-0.6637,-0.6586,-0.6588,-0.6589,-0.659,0,0,0,0,0,0,0,-0.6485,-0.6491,-0.6554,-0.6532,-0.6531,-0.6523,-0.6526,-0.6562,-0.6562,-0.6537,-0.6535,-0.6539,-0.6566,-0.6577,-0.658,-0.6637,-0.6586,-0.6589,-0.6591,-0.6592,-0.6739,-0.6741,0,0,0,0,0,0,-0.6483,-0.6489,-0.6553,-0.6555,-0.6503,-0.6526,-0.6529,-0.6546,-0.6562,-0.6562,-0.654,-0.6537,-0.6572,-0.6577,-0.6582,-0.6648,-0.6589,-0.6592,-0.6594,-0.6737,-0.6739,-0.6741,0,0,0,0,0,0,-0.6482,-0.6489,-0.6552,-0.6521,-0.6529,-0.653,-0.6549,-0.6548,-0.6559,-0.6564,-0.6564,-0.6552,-0.6571,-0.6577,-0.662,-0.6649,-0.6594,-0.6597,-0.6734,-0.6737,-0.674,-0.6783,0,0,0,0,0,0,-0.6479,-0.6489,-0.6511,-0.6522,-0.653,-0.6591,-0.6551,-0.655,-0.6564,-0.656,-0.6575,-0.6575,-0.657,-0.6616,-0.6623,-0.6652,-0.6599,-0.6732,-0.6736,-0.6739,-0.6779,-0.6788,-0.6794,0,0,0,0,0,-0.6476,-0.6523,-0.6513,-0.6521,-0.6558,-0.6592,-0.6597,-0.6589,-0.6567,-0.6589,-0.6591,-0.6575,-0.6644,-0.662,-0.6629,-0.6659,-0.673,-0.6735,-0.6739,-0.6776,-0.6786,-0.6794,0,0,0,0,0,0,-0.6518,-0.6525,-0.6513,-0.6565,-0.6578,-0.6587,-0.6615,-0.6601,-0.6621,-0.6617,-0.6607,-0.661,-0.6656,-0.6662,-0.6635,-0.6714,-0.6683,-0.669,-0.6709,-0.6718,-0.6726,-0.6723,-0.6602,0,0,0,0,0,-0.6533,-0.6559,-0.6564,-0.661,-0.6617,-0.6614,-0.6629,-0.6621,-0.6635,-0.6641,-0.6647,-0.6661,-0.6685,-0.6702,-0.6725,-0.678,-0.6781,-0.6804,-0.6812,-0.6818,-0.6824,-0.6851,-0.686,-0.6756,-0.6756,-0.6756,0,0,-0.6565,-0.6572,-0.659,-0.6618,-0.6627,-0.6655,-0.662,-0.6651,-0.6671,-0.6646,-0.6686,-0.6691,-0.6706,-0.6754,-0.6776,-0.676,-0.6853,-0.6824,-0.6829,-0.6831,-0.6856,-0.6866,-0.6875,-0.6759,-0.6759,-0.6758,0,0,-0.6637,-0.6645,-0.6683,-0.6692,-0.6705,-0.6703,-0.6712,-0.6722,-0.6723,-0.6763,-0.6744,-0.6768,-0.6811,-0.6822,-0.6833,-0.6904,-0.6889,-0.6912,-0.6952,-0.6978,-0.6986,-0.6993,-0.7017,-0.7026,-0.6918,-0.6918,-0.6918,0,-0.6675,-0.6715,-0.6704,-0.6736,-0.6748,-0.6724,-0.6761,-0.6771,-0.6792,-0.6801,-0.6783,-0.6835,-0.6844,-0.6893,-0.691,-0.692,-0.6929,-0.6911,-0.6986,-0.6993,-0.6999,-0.7022,-0.7032,-0.692,-0.692,-0.692,-0.692,0,-0.6761,-0.6789,-0.6817,-0.6836,-0.6851,-0.6886,-0.6879,-0.6896,-0.6886,-0.6885,-0.6925,-0.6934,-0.6957,-0.6968,-0.696,-0.7016,-0.7006,-0.6987,-0.6956,-0.7012,-0.7033,-0.7042,-0.6924,-0.6923,-0.6922,-0.6922,0,0,-0.6863,-0.6871,-0.6882,-0.6889,-0.69,-0.6922,-0.6954,-0.6975,-0.6989,-0.7004,-0.703,-0.7065,-0.7047,-0.7059,-0.7052,-0.7075,-0.7129,-0.7053,-0.7053,-0.7066,-0.7188,-0.7202,-0.7213,-0.7118,-0.712,-0.7121,-0.7187,0,-0.6934,-0.6989,-0.6978,-0.7032,-0.7056,-0.7032,-0.706,-0.707,-0.7069,-0.709,-0.7089,-0.7114,-0.7088,-0.7095,-0.7117,-0.7118,-0.7153,-0.7113,-0.7142,-0.7143,-0.7139,-0.7224,-0.724,-0.7301,-0.7195,-0.7197,-0.7198,0,-0.7025,-0.704,-0.7096,-0.71,-0.711,-0.7135,-0.7152,-0.7172,-0.7182,-0.7179,-0.7192,-0.7179,-0.721,-0.7177,-0.7219,-0.7192,-0.7203,-0.7205,-0.7207,-0.721,-0.7174,-0.7229,-0.7321,-0.733,-0.7211,-0.721,-0.7209,0,-0.7092,-0.7127,-0.7164,-0.717,-0.7177,-0.7195,-0.7198,-0.7206,-0.7218,-0.7233,-0.724,-0.7259,-0.727,-0.7284,-0.7276,-0.7254,-0.7319,-0.7287,-0.7318,-0.7318,-0.7333,-0.7332,-0.7428,-0.7341,-0.7341,-0.734,-0.734,0,-0.7173,-0.7208,-0.7193,-0.7217,-0.7254,-0.724,-0.7278,-0.7278,-0.7285,-0.7307,-0.7287,-0.7309,-0.7297,-0.7317,-0.7311,-0.7345,-0.7351,-0.7349,-0.7347,-0.7351,-0.7351,-0.7358,-0.7354,-0.7343,-0.7342,-0.7342,-0.7341,0,-0.7256,-0.7247,-0.7286,-0.7287,-0.7288,-0.7315,-0.7317,-0.7337,-0.7334,-0.7362,-0.7367,-0.7362,-0.7384,-0.7377,-0.7402,-0.7398,-0.7441,-0.7434,-0.7438,-0.7436,-0.7467,-0.7464,-0.7571,-0.7584,-0.7488,-0.7489,-0.749,0,-0.7308,-0.7333,-0.7336,-0.7349,-0.7353,-0.7374,-0.7385,-0.7372,-0.7385,-0.7396,-0.7415,-0.7435,-0.745,-0.7487,-0.7485,-0.7503,-0.7496,-0.7532,-0.7499,-0.7501,-0.7496,-0.7494,-0.7496,-0.7539,-0.754,-0.7541,-0.7542,0,-0.7401,-0.7394,-0.7411,-0.7426,-0.7439,-0.7451,-0.7461,-0.7472,-0.7459,-0.7474,-0.7495,-0.7507,-0.753,-0.755,-0.7566,-0.7569,-0.7553,-0.7552,-0.756,-0.7564,-0.7565,-0.7564,-0.7456,-0.755,-0.7549,-0.7548,-0.7548,-0.7548,-0.7469,-0.749,-0.7494,-0.7512,-0.7517,-0.7526,-0.7545,-0.7542,-0.7559,-0.7576,-0.7567,-0.7591,-0.7597,-0.7616,-0.7622,-0.764,-0.7627,-0.7638,-0.7641,-0.7645,-0.7648,-0.7561,-0.7643,-0.7643,-0.7643,-0.7643,-0.7642,0,-0.7561,-0.7561,-0.7578,-0.759,-0.7604,-0.7586,-0.7594,-0.7608,-0.7629,-0.7635,-0.765,-0.7673,-0.7691,-0.769,-0.7706,-0.7721,-0.7714,-0.7726,-0.7725,-0.7726,-0.766,-0.7651,-0.7732,-0.7731,-0.7731,-0.7731,-0.7731,-0.7731,-0.761,-0.7643,-0.7636,-0.7671,-0.7671,-0.7693,-0.77,-0.7707,-0.7711,-0.7738,-0.7752,-0.775,-0.7753,-0.7769,-0.7784,-0.7783,-0.779,-0.7805,-0.7801,-0.774,-0.7731,-0.7722,-0.7714,-0.7806,-0.7806,-0.7865,-0.7866,-0.7866]}]]